OBJECT E, 69506

Orbit data source: Space-Track

You're viewing an Uncataloged Satellite

Recently launched and/or uncataloged satellites may have evolving metadata. Metadata may include but not limited to: Owner, Maufacturer, Bus, Motor, and Mission.

OBJECT E, 69506 is a satellite in SSO that was launched on Fri, 12 Jun 2026 UTC via an FALCON 9 launch vehicle from the Tanegashima Space Center (TNSTA). Unknown objects in Earth's orbit typically refer to objects detected orbiting the Earth but have not yet been identified or cataloged. These objects could be anything from previously untracked satellites, spent rocket stages, debris from satellite collisions, or even natural meteoroids temporarily captured by Earth's gravity.

Loading next visibility...
Identifier
69506, 2026-132E
Orbit
SSO
Country
Flag of TBDTBD
Related business
None
Manufacturer
Unknown
Mission
Operational spacecraft
Bus & Motor
Unknown
Mass
Unknown
Launch date (UTC)
2026-06-12 (1 day ago)
Launch vehicle
FALCON 9
Launch site
Tanegashima Space Center (TNSTA)
Object type
Unknown
Shape & HBR
Unknown
Radar Cross Section
RCS unknown

Expand to show TLE details & history
Last TLE update: 9 hours ago

TLE from 9 hours ago
0 OBJECT E
1 69506U 26132E   26164.41543244  .00001671  00000-0  13578-3 0  9998
2 69506  97.6848 228.1411 0011327 323.9735  36.0724 15.00908353   214
Epoch: 2026-06-13T09:58Z
TLE epoch observation values (Epoch: 2026-06-13T09:58:13.362Z)
Latitude
-0.00009°
Longitude
176.85459°
Altitude
560.796 km
Speed
7.584 km/s
True Right ascension
15h 12m 33s
True Declination
0° 00' 00"
Sunlit
Object was in full shadow at epoch
Visualization orbit readout
Latitude
Unknown
Longitude
Unknown
Altitude
Unknown
Speed
Unknown
Apparent Right ascension
Unknown
Apparent Declination
Unknown
Sunlit
N/A
Visualization observer readout
Local Sidereal Time
04:59:45
Azimuth
Unknown
Elevation
Unknown
Doppler factor
Unknown
Orbital elements
Apogee altitude
568.957 km
Perigee altitude
553.237 km
Semi-major axis
6,939.234 km
Eccentricity
0.00113
Inclination
97.6848°
RAAN
228.1411°
Arg. of periapsis
323.9735°
True anomaly
36.14891°
Mean anomaly
36.0724°
Eccentric anomaly
36.11065°
Mean motion
3.75471 °/min
Orbital period
95.88 mins
BSTAR
0.00013578
Loading maneuver chart data...
Computing Atmospheric mass density...
Loading historical data...
Loading historical data...
Loading historical data...
Loading historical data...
Loading historical data...
Loading historical data...
Loading historical data...
Other satellites on launch #132 in the year 2026 (2026-06-12 UTC)

Documentation

Showing up to 5 results
|